Presure
125 109 127 119 136 114 116 103 106 109 137 127 141 119 134 131 140 126 138 135 138 150 141 102 141 127 130 136 134 124 140 120 141 153 156 176 168 167 136 163 148 155 126 144 157 166 172 160 166
126 124 121 129 131 126 134 133 129 134 134 144 134 134 129 128 133 118 152 134 157 138 135 140 126 140 138 140 136 124 146 144 128 155 149 161 174 183 170 156 163 152 157 155 165 158 170 173 162
116 119 129 119 140 127 127 125 132 137 144 130 119 124 144 136 136 156 140 147 141 134 141 123 137 131 124 132 139 135 133 109 143 139 152 165 185 158 166 159 149 163 147 145 148 145 165 176 168
116 130 148 146 133 149 136 134 140 157 138 168 129 145 132 139 145 149 147 149 126 128 126 128 134 102 128 133 133 140 120 140 143 129 178 165 164 183 181 164 154 145 137 151 149 148 165 174 170
123 125 140 113 150 134 138 149 151 163 161 119 122 144 131 149 144 144 138 132 122 146 145 130 127 101 126 135 130 119 111 130 148 136 157 163 159 181 144 163 152 159 144 151 151 148 162 164 161
159 134 155 107 140 129 141 151 160 131 149 141 130 136 144 133 147 134 140 138 139 143 150 119 122 131 128 123 151 151 130 136 147 133 146 148 153 191 164 165 157 156 170 142 159 146 163 164 171
171 178 162 133 119 146 166 116 169 180 171 141 135 137 133 129 135 138 126 120 145 140 159 124 129 127 127 132 128 125 140 135 135 142 143 157 161 166 134 172 160 154 168 161 166 143 136 160 153
183 192 170 143 139 123 147 172 137 133 143 150 138 126 131 114 134 127 135 143 138 150 133 131 128 139 128 135 132 143 125 131 147 141 144 160 151 174 183 164 150 161 146 142 164 164 148 161 154
171 131 166 156 155 137 133 153 171 124 134 133 130 145 129 129 133 137 142 142 143 133 130 137 147 119 134 132 132 143 133 128 150 143 157 160 157 172 179 187 154 162 149 145 155 157 166 158 160
141 179 150 168 146 154 117 139 135 190 174 170 150 144 117 117 127 139 138 122 143 116 123 136 126 124 137 158 141 143 124 149 148 129 156 155 160 169 191 159 170 161 171 165 170 168 158 156 151
149 147 175 173 128 140 133 132 122 145 119 118 108 140 138 131 134 108 141 136 137 144 141 146 130 146 131 127 136 149 141 154 148 172 177 159 172 177 158 174 166 160 151 160 157 158 154 141 137
129 144 132 149 135 128 133 123 137 141 150 112 90 136 140 126 106 142 140 133 145 133 125 120 152 101 144 151 145 150 156 154 130 173 201 168 175 176 186 183 162 160 157 150 161 150 152 139 163
154 167 128 129 163 141 139 144 125 122 130 131 130 138 137 118 138 134 139 139 139 153 160 154 147 154 153 157 159 146 178 147 174 164 194 178 186 189 203 181 172 158 149 151 158 139 157 146 153
143 126 148 147 147 135 140 139 99 134 119 134 135 138 123 126 139 134 142 150 157 140 147 203 207 172 144 150 159 132 131 167 138 168 184 183 212 189 184 178 168 155 145 161 168 147 161 142 145
137 155 143 143 137 139 128 120 145 136 130 139 138 126 146 145 141 127 208 209 149 187 186 149 151 164 155 163 151 161 133 155 162 189 189 222 191 209 178 167 167 159 156 162 143 161 147 142 165
142 150 145 143 120 122 143 126 127 137 114 145 146 146 143 131 122 148 134 162 140 148 165 169 187 188 208 232 189 218 207 191 179 190 177 200 199 177 165 168 167 158 158 170 161 152 135 155 170
133 136 139 127 131 123 124 131 133 135 143 134 135 141 97 130 160 150 115 137 164 159 188 170 190 196 157 176 193 194 203 200 156 190 214 172 192 179 160 161 166 166 165 147 140 151 149 160 160
120 119 123 128 124 128 137 145 142 154 156 125 140 142 99 107 146 144 164 173 176 183 181 129 187 172 187 184 228 211 216 193 187 174 193 191 162 174 171 184 170 166 156 154 164 144 146 155 160
153 154 151 149 147 144 147 155 164 151 139 101 151 152 152 154 155 167 178 161 209 192 122 186 198 150 162 213 225 216 191 190 178 200 150 166 165 175 173 176 175 180 185 150 157 147 149 143 142
168 169 165 159 158 160 165 166 162 144 142 156 134 157 159 167 190 158 206 195 195 185 186 182 179 167 160 206 210 202 187 185 206 186 165 179 178 184 172 158 172 174 181 149 157 145 152 160 158
150 157 162 164 156 151 144 144 148 153 151 146 160 162 202 165 220 202 190 154 190 192 197 204 162 171 181 193 201 196 189 195 190 180 175 168 175 163 136 189 182 163 165 167 158 146 148 158 151
158 151 146 145 144 145 149 155 150 149 157 165 169 208 154 207 220 204 193 199 200 190 191 192 163 166 169 193 199 175 170 203 187 179 155 164 167 174 150 182 185 182 183 157 172 148 157 141 143
161 153 154 152 150 148 147 151 158 165 167 180 178 154 226 223 212 235 229 208 207 201 178 172 169 183 201 230 204 172 171 200 180 166 178 154 161 170 174 179 179 186 187 175 156 182 152 149 156
172 164 161 160 159 158 159 164 158 167 171 202 171 201 207 201 187 186 182 177 172 177 176 173 168 192 190 221 185 182 203 192 181 171 167 162 158 160 161 154 178 176 179 179 173 178 153 153 153
185 176 172 167 165 163 165 178 168 177 206 196 207 190 194 179 178 194 198 199 193 202 173 189 183 197 164 153 204 182 189 188 188 169 167 183 167 156 155 151 155 157 175 170 171 176 179 153 159
173 182 184 183 178 174 173 170 176 178 174 207 183 183 176 190 178 205 198 203 202 203 201 217 208 236 207 177 192 168 167 147 173 157 174 178 187 175 167 161 171 178 174 171 179 172 162 154 150
174 199 189 182 179 183 179 166 194 160 213 195 207 198 199 205 199 193 215 213 207 194 199 218 184 223 176 184 178 164 156 182 183 177 178 189 189 189 119 173 174 169 138 157 197 166 167 172 176
230 224 161 163 206 209 169 190 207 199 203 200 196 186 171 188 177 179 181 180 179 185 208 183 189 215 186 176 176 165 152 160 157 159 164 168 180 187 191 179 177 136 171 163 155 153 155 173 169
212 207 178 181 207 177 169 191 193 188 204 200 197 189 178 181 177 176 187 180 178 170 173 177 190 200 213 187 156 149 142 159 144 149 153 165 171 188 172 191 178 177 186 169 139 167 144 155 154
213 221 203 175 176 169 197 189 182 185 201 203 192 189 189 180 159 189 177 178 167 157 163 154 176 162 163 154 153 161 155 165 153 162 169 163 164 165 176 196 185 185 181 191 151 181 179 193 159
Wind_Speed
34 4 32 31 27 10 8 13 9 8 19 16 16 8 8 15 20 16 22 19 19 18 14 11 17 16 16 16 19 23 25 20 35 41 36 28 27 23 31 11 22 15 25 22 23 31 35 22 19
33 33 24 18 32 24 29 26 23 20 14 16 19 9 15 15 19 10 22 16 21 14 13 14 15 15 18 20 21 13 37 35 24 43 39 36 21 10 9 21 9 16 14 18 25 26 34 23 11
22 5 28 9 34 26 28 21 25 26 19 15 8 11 16 16 19 18 17 18 17 16 15 16 20 21 18 20 24 24 17 19 40 37 43 36 13 23 18 15 19 11 19 23 18 20 34 32 15
5 28 37 35 27 34 29 27 28 28 16 28 16 16 19 20 11 14 15 17 10 15 13 18 23 10 24 27 22 25 16 32 37 26 33 34 28 14 6 7 14 18 25 23 24 22 32 34 22
11 15 38 2 38 18 12 37 23 23 20 4 6 18 18 13 10 15 15 13 11 20 22 15 18 8 20 27 25 16 17 21 40 31 41 33 29 14 30 10 19 15 20 18 20 23 29 31 17
47 19 46 6 9 15 8 12 27 17 10 10 15 18 13 12 14 12 17 19 21 24 25 9 10 21 21 18 40 36 16 27 40 27 36 34 33 14 20 12 18 18 18 18 19 21 32 26 23
41 42 45 14 4 1 43 4 35 33 22 16 15 12 12 10 14 12 6 4 22 18 25 13 18 18 18 25 21 18 32 29 26 35 32 34 36 27 26 4 16 17 14 14 16 19 22 28 22
27 29 29 27 21 7 6 45 14 14 11 9 10 11 13 3 17 11 17 21 15 25 17 19 17 26 20 25 22 29 18 23 38 34 34 37 32 24 9 13 19 15 14 20 16 16 18 26 23
30 12 29 28 29 18 6 11 37 10 10 10 9 12 12 15 19 20 24 21 24 16 16 21 28 13 24 25 23 33 26 17 38 33 37 37 32 25 15 6 21 16 14 18 14 16 15 20 28
21 32 22 33 30 29 7 11 11 35 30 29 20 18 8 7 15 22 19 7 24 11 17 23 20 15 25 39 31 35 17 39 36 18 34 32 31 27 5 15 11 11 9 11 16 18 13 18 22
35 20 37 39 6 19 12 11 10 14 2 7 4 18 18 20 23 6 28 21 25 31 25 34 21 34 24 14 28 36 32 39 32 40 34 30 29 22 25 12 9 8 11 10 12 20 18 16 16
8 24 11 27 15 10 11 9 14 16 22 8 1 22 24 21 9 33 32 22 35 23 16 15 43 11 37 41 35 41 42 38 17 34 28 30 27 21 13 10 10 7 6 8 11 13 14 11 22
38 43 16 18 40 24 20 25 10 9 16 17 20 29 28 19 30 29 34 29 30 47 46 35 45 45 45 44 44 37 38 25 35 32 24 25 19 15 14 13 11 9 8 8 8 10 12 16 21
25 14 33 32 35 20 23 22 0 22 16 25 27 33 23 22 39 36 43 49 46 37 44 34 41 45 35 39 40 23 16 36 22 33 27 21 10 7 16 14 9 7 8 4 9 11 15 16 15
23 46 29 30 21 26 16 10 30 23 25 33 34 28 43 42 45 30 22 26 42 46 37 39 39 38 38 39 29 31 14 31 30 28 23 7 4 10 14 7 13 10 4 4 6 9 10 13 17
35 45 36 31 14 15 31 22 22 27 17 37 39 44 45 34 15 38 32 44 31 36 43 43 45 48 36 26 20 25 27 28 27 23 19 4 6 8 5 11 13 11 6 4 5 8 10 13 14
30 29 30 19 27 20 21 27 27 29 37 35 35 44 9 27 46 43 21 33 38 40 45 38 48 40 27 31 28 24 27 22 16 16 7 6 9 12 10 12 11 14 11 1 4 8 8 12 11
21 18 17 22 27 28 34 38 34 44 42 16 37 41 12 9 37 38 52 50 47 46 45 21 40 31 28 30 16 14 13 14 15 13 3 5 7 11 9 7 15 15 9 2 4 3 9 13 10
49 50 45 44 48 42 47 48 46 41 37 4 40 40 41 45 48 51 50 47 46 46 13 44 28 18 27 26 13 11 12 11 12 8 10 9 7 6 5 8 14 15 11 5 5 5 6 7 9
50 50 47 47 46 46 47 44 41 39 35 40 28 42 41 44 41 46 40 40 42 37 40 31 25 29 22 21 17 10 10 11 7 5 5 6 3 3 13 14 11 5 10 7 8 7 2 7 13
43 44 42 44 41 41 38 37 38 40 41 41 42 40 34 40 30 29 33 34 39 42 36 33 25 26 26 26 18 12 9 6 8 8 3 1 10 4 16 5 8 12 14 15 14 8 2 6 10
47 44 43 40 38 38 39 40 39 40 44 44 41 32 37 24 24 29 24 31 36 32 31 20 13 17 18 20 18 13 12 8 10 8 3 3 5 6 9 7 7 8 11 14 16 10 6 5 6
49 45 45 43 39 40 38 41 41 42 41 41 38 37 19 15 17 24 30 28 28 28 14 6 11 18 19 15 14 13 14 10 10 7 7 5 4 5 6 6 6 7 11 17 14 16 11 7 7
52 49 46 43 42 42 43 40 41 41 39 23 35 27 20 23 15 16 14 11 6 9 9 5 10 19 10 10 9 12 6 8 9 8 8 7 7 8 9 12 8 10 11 14 17 16 15 14 9
50 49 45 43 42 42 40 35 39 38 20 23 21 23 25 22 15 15 18 16 17 16 17 20 18 10 9 12 6 6 9 6 8 10 7 13 13 9 9 13 15 12 14 16 16 17 18 16 13
48 47 42 40 39 38 37 35 37 34 33 18 26 27 24 25 20 11 11 10 11 12 13 10 12 5 7 7 3 4 6 12 11 9 18 20 16 18 19 14 15 14 13 14 15 17 21 21 15
45 43 39 39 41 40 38 36 29 40 23 24 17 13 10 9 8 3 5 4 6 7 7 13 13 3 6 2 1 4 9 12 11 16 19 25 18 21 11 22 20 15 11 17 12 17 19 19 22
40 37 45 43 33 31 38 29 21 28 28 28 25 23 24 14 16 16 10 7 2 8 7 7 6 6 6 5 2 4 8 10 10 11 16 21 24 22 24 25 25 17 21 23 19 16 15 19 19
36 38 41 40 33 40 42 32 31 32 25 35 34 29 24 20 21 18 13 11 4 4 2 5 5 8 10 8 10 7 16 14 29 26 19 24 24 28 24 28 25 25 29 25 17 20 17 16 18
34 35 37 46 44 44 35 37 39 36 33 31 33 30 25 28 24 18 20 13 12 12 9 10 5 8 11 15 14 15 22 24 36 29 28 26 24 23 27 30 26 27 26 29 23 27 27 29 25
Wind_Direction
195 38 208 222 224 231 242 81 54 157 243 236 249 322 294 261 267 305 282 288 298 311 314 20 325 330 338 343 343 357 356 348 359 357 357 352 346 335 352 337 339 339 355 335 10 21 13 16 18
203 209 207 224 223 224 230 226 238 236 234 254 232 271 260 280 278 333 288 303 301 303 322 325 332 327 330 339 348 344 351 0 348 352 356 353 337 333 311 327 359 334 350 2 16 20 16 14 12
196 184 216 286 221 229 235 234 237 239 245 241 283 286 272 276 287 302 293 299 301 326 321 343 330 336 346 341 344 349 8 8 357 356 352 349 338 345 320 329 331 343 330 346 357 357 15 10 28
326 218 221 221 235 228 234 239 248 247 236 260 238 259 274 276 284 293 291 305 4 327 340 338 337 356 339 339 343 348 345 2 354 350 348 349 352 351 345 329 327 336 342 358 357 359 15 16 33
244 235 216 271 230 236 245 239 250 246 240 248 286 256 276 266 292 300 308 314 341 307 311 340 345 10 344 337 334 321 322 7 344 352 349 354 352 336 350 326 328 330 339 352 3 5 13 15 31
226 220 225 168 231 237 209 243 248 230 232 238 250 256 276 272 306 292 303 306 312 313 311 354 345 328 336 332 324 336 356 344 342 354 349 345 347 346 330 318 312 335 26 352 25 7 22 14 17
230 225 226 251 139 249 236 218 249 258 249 212 227 254 273 283 297 306 325 331 307 309 314 331 324 330 339 319 330 318 336 344 350 342 342 346 348 342 349 305 315 330 39 26 28 356 4 22 30
222 224 232 243 229 233 356 238 231 255 265 264 253 278 287 270 300 319 301 307 300 304 301 312 323 308 331 316 328 327 328 348 327 337 335 339 343 334 326 309 329 306 333 336 29 32 16 32 20
219 227 229 220 236 236 301 328 255 246 251 261 253 258 287 293 294 297 299 301 303 286 310 294 304 351 319 323 330 324 330 347 323 336 332 333 333 327 318 242 306 302 334 356 14 23 38 47 36
242 220 229 225 227 229 205 266 262 258 271 283 275 279 277 306 293 288 290 313 295 346 328 309 319 319 313 309 322 318 328 317 325 334 326 325 325 322 235 329 249 298 20 27 27 27 44 42 39
228 256 218 221 203 243 238 242 257 290 360 348 156 269 273 288 288 352 292 298 300 298 306 305 325 312 331 332 314 312 320 314 326 316 315 319 319 313 313 261 247 289 325 12 42 43 40 27 16
220 251 217 242 247 215 245 273 271 274 292 338 116 294 287 281 311 291 298 311 297 323 330 338 304 329 320 313 315 311 309 308 329 317 313 315 314 310 256 214 260 272 302 353 46 51 43 27 48
235 221 236 240 240 262 267 279 261 286 284 289 290 288 288 291 289 295 298 301 304 300 299 300 309 304 308 306 305 304 298 319 310 320 312 314 303 289 205 192 204 263 328 331 32 13 37 31 7
254 238 243 252 257 264 272 278 87 286 290 295 295 294 297 315 302 320 306 294 295 309 306 298 286 304 304 303 300 293 333 301 312 315 310 310 283 265 203 206 202 254 329 315 46 37 39 39 31
254 229 252 252 256 264 269 300 271 281 291 286 291 288 285 286 297 303 282 269 299 302 300 298 300 304 301 298 297 296 312 308 311 307 307 270 276 176 207 192 204 238 264 270 356 30 46 35 42
246 238 249 257 280 262 270 283 291 284 277 283 279 281 284 291 312 296 306 299 315 309 306 312 314 311 303 293 291 285 281 292 301 300 315 268 191 225 255 215 219 250 234 253 63 61 36 41 55
252 252 252 269 267 280 291 284 283 281 278 284 283 284 221 288 288 292 285 294 298 303 305 315 312 306 297 305 296 287 279 287 294 300 231 294 163 190 260 245 241 237 231 359 345 48 42 54 48
261 266 273 269 273 275 270 269 271 268 268 256 276 278 258 266 290 291 295 295 299 302 308 283 304 314 310 311 284 287 269 284 291 313 238 162 268 238 236 183 234 234 245 230 185 360 73 49 47
232 235 240 244 249 257 260 260 261 262 268 180 273 276 278 284 289 288 286 297 270 294 287 305 296 307 318 307 288 271 283 284 292 244 293 248 265 247 192 200 207 216 185 270 150 279 76 87 69
233 235 235 237 241 246 252 257 264 268 268 275 280 281 282 282 276 286 270 284 285 295 298 305 286 291 310 299 282 289 286 292 226 260 202 182 163 90 234 253 229 191 200 281 203 267 166 86 62
240 240 239 241 244 250 257 264 268 272 276 274 276 279 279 284 261 273 280 287 288 292 301 295 283 294 301 317 295 283 274 239 256 269 310 293 12 267 285 261 209 235 227 225 243 242 169 108 91
240 242 244 248 251 255 259 262 266 267 271 276 281 279 285 275 276 270 285 282 288 290 312 311 281 295 301 317 285 281 285 249 233 245 294 346 340 307 279 286 229 215 223 250 226 249 227 150 116
243 245 247 250 253 258 260 263 266 271 275 281 283 282 297 299 309 263 264 277 285 282 284 270 291 315 290 259 274 281 290 233 239 252 249 287 308 332 309 302 270 250 243 235 256 221 231 218 205
239 242 246 249 251 254 259 264 269 273 275 278 281 294 291 298 294 312 307 305 290 300 259 260 277 313 286 267 273 286 256 247 269 288 299 290 280 299 302 293 284 246 245 238 230 224 238 239 217
237 239 242 245 248 251 256 262 264 266 261 269 260 280 290 281 295 294 297 289 292 284 278 297 306 272 234 261 202 268 294 321 328 271 272 295 297 273 273 301 284 279 245 238 242 241 235 248 242
235 237 239 242 246 247 250 252 258 257 261 240 264 267 274 272 284 270 288 283 289 295 292 277 275 233 194 250 315 286 288 275 327 289 324 334 283 277 282 271 289 295 273 262 258 244 248 265 278
237 238 241 241 243 242 243 246 252 256 209 240 193 214 234 233 245 263 247 262 302 333 343 117 252 260 239 254 89 349 326 321 304 336 323 317 305 273 258 280 277 261 291 250 275 252 250 252 247
230 233 236 238 229 232 243 243 224 237 233 220 214 224 254 227 257 249 241 233 226 18 331 312 300 268 217 217 287 21 317 301 288 296 307 305 298 289 259 256 264 275 250 241 252 257 257 252 250
231 231 235 234 217 238 242 230 229 240 233 213 211 211 223 222 231 254 223 221 207 210 311 315 295 261 249 201 246 244 246 281 247 249 250 292 290 286 273 265 263 265 264 265 284 262 267 251 263
220 222 222 231 233 241 217 223 235 237 232 230 222 219 218 229 241 227 234 232 229 225 221 219 272 220 251 255 241 209 251 259 266 271 271 267 266 272 285 274 274 266 259 259 270 252 250 248 249